FW2977 Weather Reports


Display with metric or nautical units.
time (UTC)temp
F
wind
direction
speed
MPH
gust
MPH
rain 1hr
in
rain 24hr
in
rain mn
in
humidity
%
barometer
mb
20260505074524 60 130 8.0 15.0 0.00 0.00 0.00 63 953.6
20260505073030 60 132 7.0 14.0 0.00 0.00 0.00 61 953.5
20260505071623 60 113 8.0 13.0 0.00 0.00 0.00 61 953.5
20260505070024 60 111 8.0 15.0 0.00 0.00 0.00 60 953.6
20260505064525 59 97 8.0 12.0 0.00 0.00 0.00 60 953.6
20260505063022 60 92 8.0 16.0 0.00 0.00 0.00 60 953.6
20260505061522 60 104 7.0 14.0 0.00 0.00 0.00 59 953.6
20260505060027 59 138 9.0 16.0 0.00 0.00 0.00 59 953.6
20260505054531 59 113 7.0 14.0 0.00 0.00 0.00 60 953.6
20260505053016 59 113 9.0 16.0 0.00 0.00 0.00 59 953.6
20260505051514 58 98 10.0 14.0 0.00 0.00 0.00 60 953.8
20260505041606 60 93 10.0 15.0 0.00 0.00 0.00 56 953.7
20260505040002 61 96 10.0 15.0 0.00 0.00 0.00 55 953.6
20260505034600 61 88 9.0 14.0 0.00 0.00 0.00 54 953.5
20260505033115 62 111 11.0 18.0 0.00 0.00 0.00 54 953.5
20260505031559 62 117 12.0 19.0 0.00 0.00 0.00 53 953.5
20260505030059 62 146 13.0 30.0 0.00 0.00 0.00 52 953.4
20260505024604 62 125 15.0 25.0 0.00 0.00 0.00 52 953.5
20260505023106 62 117 13.0 22.0 0.00 0.00 0.00 51 953.5
20260505021557 63 121 14.0 21.0 0.00 0.00 0.00 50 953.5
20260505020057 63 96 12.0 23.0 0.00 0.00 0.00 49 953.5
20260505014555 63 101 15.0 22.0 0.00 0.00 0.00 48 953.6
20260505013055 64 113 14.0 21.0 0.00 0.00 0.00 47 953.4
20260505011600 64 102 16.0 25.0 0.00 0.00 0.00 47 953.4
20260505010058 64 88 16.0 25.0 0.00 0.00 0.00 47 953.2
20260505004555 64 117 14.0 25.0 0.00 0.00 0.00 46 953.2
20260505003051 64 109 12.0 20.0 0.00 0.00 0.00 46 953.2
20260505001551 65 98 13.0 19.0 0.00 0.00 0.00 46 953.0
20260505000051 65 129 12.0 19.0 0.00 0.00 0.00 45 952.9
20260504234613 65 97 8.0 16.0 0.00 0.00 0.00 44 952.8
20260504233051 66 133 8.0 16.0 0.00 0.00 0.00 44 952.8
20260504231554 66 121 9.0 15.0 0.00 0.00 0.00 42 952.7
20260504230047 67 126 5.0 13.0 0.00 0.00 0.00 42 952.7
20260504224548 67 161 5.0 14.0 0.00 0.00 0.00 41 952.7
20260504223046 68 166 5.0 14.0 0.00 0.00 0.00 41 952.6
20260504221554 68 118 6.0 19.0 0.00 0.00 0.00 41 952.6
20260504220045 68 106 13.0 23.0 0.00 0.00 0.00 41 952.5
20260504214549 68 112 11.0 17.0 0.00 0.00 0.00 41 952.6
20260504213048 68 163 4.0 12.0 0.00 0.00 0.00 42 952.7
20260504211541 68 171 7.0 12.0 0.00 0.00 0.00 41 952.8
20260504210052 69 142 7.0 14.0 0.00 0.00 0.00 40 953.0
20260504204617 70 105 3.0 15.0 0.00 0.00 0.00 40 953.1
20260504203036 70 134 2.0 11.0 0.00 0.00 0.00 39 953.3
20260504201537 71 191 6.0 12.0 0.00 0.00 0.00 40 953.4
20260504200038 69 220 4.0 14.0 0.00 0.00 0.00 40 953.7
20260504194543 71 177 4.0 12.0 0.00 0.00 0.00 40 953.7
20260504193031 71 185 8.0 15.0 0.00 0.00 0.00 38 954.0
20260504191529 70 167 5.0 15.0 0.00 0.00 0.00 42 953.8
20260504190033 68 111 9.0 18.0 0.00 0.00 0.00 45 953.9
20260504184526 67 138 3.0 12.0 0.00 0.00 0.00 42 954.1
20260504183029 70 159 6.0 12.0 0.00 0.00 0.00 39 954.3
20260504181525 67 188 4.0 11.0 0.00 0.00 0.00 42 954.4
20260504180021 70 127 8.0 15.0 0.00 0.00 0.00 39 954.5
20260504174518 69 186 7.0 13.0 0.00 0.00 0.00 41 954.5
20260504173017 68 128 8.0 14.0 0.00 0.00 0.00 41 954.6
20260504171533 68 202 5.0 10.0 0.00 0.00 0.00 42 954.5
20260504081549 46 202 6.0 14.0 0.00 0.00 0.00 59 956.9